Regional Weather Roundup
Issued by NWS Sterling, VA

Home | Current Version | Previous Version | Graphics & Text | Print | Product List | Glossary On
Versions: 1 2 3 4 5 6 7 8 9 10 11 12 13 14 15 16 17 18 19 20 21 22 23 24 25 26 27 28 29 30 31 32 33 34 35 36 37 38 39 40 41 42 43 44 45 46 47 48 49 50
737
ASUS41 KLWX 191510
RWRLWX

REGIONAL WEATHER ROUNDUP
NATIONAL WEATHER SERVICE BALTIMORE MD/WASHINGTON DC
1000 AM EST THU JAN 19 2017

Note: "FAIR" indicates few or no clouds below 12,000 feet
with no significant weather and/or obstructions to visibility.
 TC=TEMPERATURE CELSIUS

 * =Non NWS site. Station does not report precipitation (e.g. rain,
    snow, etc.), thunder, or fog.

DCZ001-MDZ009-015-VAZ040>042-051-053>054-191600-
WASHINGTON METRO

CITY           SKY/WX    TMP DP  RH WIND       PRES   REMARKS
WASHINGTON NAT CLOUDY    49  37  63 NW12      30.12R
DULLES         PTSUNNY   47  35  63 NW7       30.11R
ANDREWS AFB    CLOUDY    46  36  66 NW10      30.10R
FT BELVOIR     CLOUDY    47  36  63 NW5       30.12R
QUANTICO       CLOUDY    40  39  97 S6        30.14R
COLLEGE PARK*  PTSUNNY   46  34  61 W7        30.10S
LEESBURG*      CLOUDY    48  39  71 NW3       30.11S
MANASSAS*      CLOUDY   N/A N/A N/A CALM      30.13R
GAITHERSBURG*  CLOUDY    45  34  65 NW7       30.14R

$$

MDZ006>007-011-014-191600-
BALTIMORE METRO

CITY           SKY/WX    TMP DP  RH WIND       PRES   REMARKS
BWI AIRPORT    CLOUDY    46  36  68 W8        30.10R
MD SCIENCE CTR   N/A     48  33  56 MISG      30.10F
MARTIN STATE   PTSUNNY   48  39  71 NW8       30.11S
ANNAPOLIS      CLOUDY    48  35  60 NW7       30.10R
FORT MEADE*    CLOUDY    46  34  61 NW5       30.13R

$$

MDZ012-015-019>023-191600-
MARYLAND EASTERN SHORE

CITY           SKY/WX    TMP DP  RH WIND       PRES   REMARKS
OCEAN CITY     CLOUDY    47  40  76 N7        30.10R
SALISBURY      CLOUDY    48  38  68 N12       30.10R
BAY BRIDGE AP* MOSUNNY   45  36  70 NW5       30.10S
CAMBRIDGE*     CLOUDY    45  36  70 NW3       30.10S
EASTON*        PTSUNNY   48  36  61 NW5       30.13S

$$

MDZ017>025-191600-
SOUTHERN MARYLAND

CITY           SKY/WX    TMP DP  RH WIND       PRES   REMARKS
PATUXENT RIVER PTSUNNY   47  37  68 NW5       30.12R
ST INIGOES     MOSUNNY   47  38  71 CALM      30.12R
LEONARDTOWN*   MOSUNNY   46  36  66 NW6       30.13R

$$

MDZ003>005-191600-
NORTH CENTRAL MARYLAND

CITY           SKY/WX    TMP DP  RH WIND       PRES   REMARKS
FREDERICK*     PTSUNNY   46  37  71 W6        30.13R
HAGERSTOWN APT CLOUDY    45  34  65 NW8       30.09R
WESTMINSTER*   NOT AVBL

$$

MDZ501>502-191600-
WESTERN MARYLAND

CITY           SKY/WX    TMP DP  RH WIND       PRES   REMARKS
OAKLAND*       FOG       32  32 100 CALM      30.05R VSB<1/4
CUMBERLAND*    CLOUDY    45  36  70 CALM      30.15S

$$

VAZ025>031-191600-
SHENANDOAH VALLEY

CITY           SKY/WX    TMP DP  RH WIND       PRES   REMARKS
WINCHESTER*    CLOUDY    43  34  70 S6        30.10S
FRONT ROYAL*   CLOUDY    37  36  93 CALM      30.11R
LURAY*         CLOUDY    36  36 100 W5        30.11S
NEW MARKET*    CLOUDY    33  32  93 CALM      30.11R
STAUNTON*      CLOUDY    35  33  93 CALM      30.12S
WAYNESBORO*    CLOUDY    41  37  84 CALM      30.09S

$$

WVZ021-048>050-054>055-191600-
EASTERN WEST VIRGINIA PANHANDLE

CITY           SKY/WX    TMP DP  RH WIND       PRES   REMARKS
MARTINSBURG    CLOUDY    45  35  68 W7        30.10R
PETERSBURG*    CLOUDY    34  33  94 CALM      30.13R

$$

VAZ036>039-050-191600-
CENTRAL FOOTHILLS

CITY           SKY/WX    TMP DP  RH WIND       PRES   REMARKS
CHARLOTTESVILL CLOUDY    41  37  86 CALM      30.12R
CULPEPER*      CLOUDY    40  37  91 CALM      30.14S
ORANGE*          N/A     41  39  93 CALM      30.14S
GORDONSVILLE*  PTSUNNY   41  38  87 CALM      30.13R
WARRENTON*     CLOUDY    40  34  79 CALM      30.12S

$$

VAZ055>057-191600-
NORTH AND CENTRAL PIEDMONT

CITY           SKY/WX    TMP DP  RH WIND       PRES   REMARKS
FREDERICKSBRG* CLOUDY    42  39  87 W3        30.12S
STAFFORD*      CLOUDY    41  38  90 CALM      30.16S

$$

NCZ024-NYZ072-PAZ021-071-VAZ022-071-191600-
OTHER REGIONAL OBSERVATIONS

CITY           SKY/WX    TMP DP  RH WIND       PRES   REMARKS
NEW YORK CITY  SUNNY     43  36  76 VRB5      30.08R
PHILADELPHIA   PTSUNNY   47  35  63 N12       30.09S
PITTSBURGH     CLOUDY    38  36  92 W5        30.10S
ROANOKE        SUNNY     47  38  71 VRB3      30.14S
RICHMOND       CLOUDY    46  38  73 CALM      30.14R
RALEIGH        PTSUNNY   50  38  63 E5        30.13S

$$

ANZ530>537-191600-
MARINE OBSERVATIONS

STATION/POSITION TIME  TEMP    WIND        PRES
                       AIR SEA DIR/SP/G
                 (UTC) (F)     (DEG/KT/KT) (MB)
THOMAS PT LIGHT  1500   45 40  310/  5/  6   N/A
BALT KEY BRIDGE  1448   45     330/  8/  9 1019.2R
COVE POINT       1448   44     340/  4/  5 1020.3R
LEWISETTA        1448   46 43  360/  5/  6 1019.8R
SOLOMONS ISLAND  1442   45 41  290/  3/  4   N/A
PINEY POINT      1448          290/  4/  5   N/A

$$





USA.gov is the U.S. government's official web portal to all federal, state and local government web resources and services.